FW2536 Weather Reports


time (UTC)temp
F
wind
direction
speed
knots
gust
knots
rain 1hr
in
rain 24hr
in
rain mn
in
humidity
%
barometer
mb
20260903003055 68 0 0.0 2.6 0.00 0.00 0.00 60 1018.2
20260903001550 68 0 0.0 3.5 0.00 0.00 0.00 60 1018.2
20260903000053 69 0 0.0 5.2 0.00 0.00 0.00 60 1018.1
20260902234558 69 248 0.0 5.2 0.00 0.00 0.00 60 1017.6
20260902233044 69 231 0.0 2.6 0.00 0.00 0.00 60 1017.6
20260902231607 69 0 0.0 0.0 0.00 0.00 0.00 60 1017.2
20260902230051 70 0 0.0 0.9 0.00 0.00 0.00 60 1017.6
20260902224559 70 0 0.0 3.5 0.00 0.00 0.00 60 1017.8
20260902223056 70 0 0.0 0.9 0.00 0.00 0.00 60 1017.8
20260902221608 70 0 0.9 5.2 0.00 0.00 0.00 60 1017.8
20260902220100 70 0 0.0 0.9 0.00 0.00 0.00 60 1018.2
20260902214552 70 0 0.0 1.7 0.00 0.00 0.00 60 1018.2
20260902213050 70 0 0.0 0.9 0.00 0.00 0.00 59 1018.3
20260902211546 70 0 0.0 1.7 0.00 0.00 0.00 59 1018.1
20260902210052 71 0 0.0 1.7 0.00 0.00 0.00 59 1018.1
20260902204551 71 0 0.0 0.0 0.00 0.00 0.00 59 1018.0
20260902203050 71 0 0.0 0.0 0.00 0.00 0.00 59 1018.3
20260902201556 71 0 0.0 0.0 0.00 0.00 0.00 59 1018.6
20260902200054 71 0 0.0 0.0 0.00 0.00 0.00 60 1018.7
20260902194555 71 0 0.0 0.0 0.00 0.00 0.00 59 1018.7
20260902193101 71 0 0.0 0.9 0.00 0.00 0.00 59 1018.7
20260902191547 71 0 0.0 0.0 0.00 0.00 0.00 59 1018.6
20260902190054 71 0 0.0 0.0 0.00 0.00 0.00 59 1018.6
20260902184553 71 0 0.0 1.7 0.00 0.00 0.00 59 1018.9
20260902183117 71 0 0.0 0.0 0.00 0.00 0.00 60 1018.9
20260902181555 70 0 0.0 1.7 0.00 0.00 0.00 59 1019.4
20260902180100 70 0 0.0 0.0 0.00 0.00 0.00 60 1019.7
20260902174550 70 0 0.0 0.9 0.00 0.01 0.00 60 1019.8
20260902173105 70 0 0.0 0.9 0.00 0.01 0.00 60 1019.9
20260902171557 70 0 0.0 2.6 0.00 0.01 0.00 60 1020.0
20260902170051 70 0 0.0 0.0 0.00 0.01 0.00 61 1019.6
20260902164601 70 0 0.0 0.0 0.00 0.01 0.00 61 1019.5
20260902163100 70 0 0.0 0.0 0.00 0.01 0.00 61 1019.3
20260902161553 70 0 0.0 0.9 0.00 0.01 0.00 61 1019.6
20260902160124 70 0 0.0 0.0 0.00 0.01 0.00 61 1019.7
20260902154542 70 0 0.0 0.9 0.00 0.01 0.00 60 1020.0
20260902153054 70 0 0.0 1.7 0.00 0.01 0.00 60 1019.5
20260902151544 70 0 0.0 0.9 0.00 0.01 0.00 60 1019.4
20260902150051 70 0 0.0 0.9 0.00 0.01 0.00 60 1019.6
20260902144550 70 0 0.0 0.0 0.00 0.07 0.00 60 1019.7
20260902143058 70 0 0.0 0.0 0.00 0.07 0.00 60 1019.7
20260902141552 70 0 0.0 0.0 0.00 0.07 0.00 60 1019.8
20260902140052 70 0 0.0 0.9 0.00 0.07 0.00 60 1020.0
20260902134555 70 0 0.0 0.0 0.00 0.10 0.00 61 1019.8
20260902133049 70 0 0.0 0.9 0.00 0.10 0.00 61 1019.6
20260902131556 69 0 0.0 1.7 0.00 0.10 0.00 62 1019.6
20260902130054 69 0 0.0 2.6 0.00 0.10 0.00 63 1019.3
20260902124550 69 0 0.0 2.6 0.00 0.10 0.00 63 1019.0
20260902123101 69 0 0.0 0.9 0.00 0.10 0.00 63 1018.9
20260902121554 69 0 0.0 0.0 0.00 0.10 0.00 63 1018.7
20260902120053 69 0 0.0 0.0 0.00 0.10 0.00 63 1018.9
20260902114550 69 0 0.0 0.0 0.00 0.10 0.00 63 1018.7
20260902113050 69 0 0.0 0.0 0.00 0.10 0.00 63 1018.7
20260902111600 69 0 0.0 0.0 0.00 0.10 0.00 63 1018.7
20260902110050 70 0 0.0 0.0 0.00 0.10 0.00 63 1018.7
20260902104559 70 0 0.0 0.0 0.00 0.11 0.00 63 1018.7
20260902103047 70 0 0.0 0.0 0.00 0.11 0.00 63 1018.8
20260902101548 70 0 0.0 0.9 0.00 0.11 0.00 64 1018.7
20260902100052 71 0 0.0 0.0 0.00 0.11 0.00 64 1018.6
20260902094549 71 0 0.0 0.0 0.00 0.11 0.00 64 1018.4
20260902093101 71 0 0.0 0.0 0.00 0.11 0.00 64 1018.3
20260902091552 71 0 0.0 0.0 0.00 0.11 0.00 64 1018.4
20260902090048 71 0 0.0 0.0 0.00 0.11 0.00 64 1018.3
20260902084553 71 0 0.0 0.0 0.00 0.11 0.00 64 1018.3
20260902083054 71 0 0.0 0.0 0.00 0.11 0.00 64 1018.1
20260902081552 71 0 0.0 0.0 0.00 0.11 0.00 64 1018.0
20260902080052 71 0 0.0 0.0 0.00 0.11 0.00 64 1018.1
20260902074602 71 0 0.0 0.0 0.00 0.11 0.00 64 1018.1
20260902073054 71 0 0.0 0.0 0.00 0.11 0.00 64 1018.0
20260902071554 71 0 0.0 0.9 0.00 0.11 0.00 65 1018.1
20260902070053 71 0 0.0 0.9 0.00 0.11 0.00 64 1018.0
20260902064550 71 0 0.0 2.6 0.00 0.11 0.00 65 1018.1
20260902063046 71 0 0.0 4.3 0.00 0.11 0.00 65 1018.1
20260902060059 71 0 0.0 0.0 0.00 0.11 0.00 65 1018.1
20260902054609 71 0 0.0 0.0 0.00 0.11 0.00 64 1018.1
20260902053100 71 0 0.0 0.0 0.00 0.11 0.00 65 1018.1
20260902051556 71 0 0.0 0.0 0.00 0.11 0.00 64 1018.2
20260902050056 71 0 0.0 0.0 0.00 0.11 0.00 64 1018.1
20260902044554 71 0 0.0 0.0 0.00 0.11 0.00 64 1018.2
20260902043050 71 0 0.0 0.0 0.00 0.11 0.00 64 1018.0
20260902041558 71 0 0.0 0.0 0.00 0.11 0.00 64 1017.8
20260902040055 71 0 0.0 0.0 0.00 0.11 0.00 64 1017.6
20260902034556 71 0 0.0 0.0 0.00 0.12 0.11 63 1017.4
20260902033053 71 0 0.0 0.0 0.00 0.12 0.11 63 1017.3
20260902031549 71 0 0.0 0.0 0.00 0.12 0.11 62 1017.0
20260902024552 71 0 0.0 0.0 0.00 0.13 0.11 62 1016.4
20260902023105 72 0 0.0 0.0 0.00 0.13 0.11 61 1016.3
20260902021549 72 0 0.0 0.0 0.00 0.13 0.11 61 1016.4
20260902020045 73 0 0.0 0.0 0.00 0.13 0.11 61 1016.4
20260902014554 73 0 0.0 0.0 0.00 0.13 0.11 61 1016.2
20260902013055 73 0 0.0 1.7 0.00 0.13 0.11 61 1016.4
20260902011550 73 0 0.0 0.0 0.00 0.13 0.11 61 1016.3
20260902010046 74 0 0.0 0.9 0.00 0.13 0.11 61 1016.3
20260902004556 73 0 0.0 0.9 0.00 0.13 0.11 61 1016.1